CAPE
0 3 393 889 911 997 1047 917 810 756 615 396 225 154 127 101 70 58 120 124 109 207 545 643 634 226 121 55 29 10 1 0 8 4 0 0 3 8 11 6 5 5 7
0 0 0 0 638 882 996 945 821 744 559 520 316 160 144 108 80 72 95 129 112 128 208 666 494 432 258 99 27 5 0 0 4 2 0 0 5 9 6 5 5 3 6
0 0 0 0 0 0 655 1012 882 723 636 516 486 264 124 114 93 66 72 130 152 100 93 492 575 338 267 198 50 10 0 0 0 6 0 0 7 9 8 6 4 4 6
0 0 0 0 0 0 0 208 877 775 647 609 542 490 245 110 95 119 93 68 67 128 95 161 483 506 311 175 195 26 11 0 0 4 0 0 6 5 5 4 4 4 10
0 0 0 0 0 0 0 0 0 646 804 676 575 514 397 245 112 79 160 202 119 87 124 80 339 411 353 246 176 128 34 16 7 6 1 0 1 5 4 4 4 5 9
0 0 0 0 0 0 1 0 0 0 39 759 750 567 337 270 138 45 49 103 155 104 83 90 109 363 317 300 211 146 86 50 17 12 12 0 0 3 3 5 5 4 5
0 0 0 1 1 1 3 1 3 4 1 3 675 449 466 180 123 33 23 32 76 113 97 74 98 152 233 246 193 186 192 113 36 20 19 14 2 0 3 3 4 3 3
0 1 1 1 0 0 0 2 1 1 5 6 12 419 189 257 164 134 19 18 43 57 88 85 79 87 112 94 162 153 167 196 112 11 15 12 6 0 0 2 4 4 5
0 1 1 1 1 3 0 0 1 1 1 0 4 9 142 35 75 77 77 30 79 23 56 71 30 43 40 19 27 66 69 77 153 39 6 6 1 3 0 0 5 3 7
0 2 0 1 1 1 1 1 0 0 4 2 1 0 23 265 184 11 37 74 68 57 44 39 19 14 5 15 0 3 7 10 45 103 36 6 0 0 0 0 1 5 7
1 1 1 0 1 1 3 4 2 1 2 3 3 4 3 18 185 276 12 40 45 76 52 38 11 12 3 3 5 0 0 0 8 51 85 19 0 0 0 0 0 0 5
0 0 1 1 2 1 1 3 5 5 5 2 2 2 1 12 23 69 42 62 57 8 15 24 38 6 23 29 3 0 0 0 2 10 35 73 9 0 0 0 0 0 0
0 1 1 1 2 4 2 4 3 8 5 2 3 3 1 3 23 27 157 81 30 6 2 0 2 9 41 13 9 0 0 0 0 0 2 35 42 1 0 0 0 0 0
1 0 3 3 3 2 3 4 2 3 4 3 3 4 3 5 22 53 36 9 9 0 0 0 26 53 45 24 12 0 0 0 0 0 0 0 8 0 0 0 0 0 0
3 2 1 3 4 2 7 2 2 3 3 3 3 3 3 13 17 50 207 69 15 5 2 0 4 36 24 25 15 7 4 0 0 0 0 0 0 5 0 0 0 0 0
1 1 1 3 5 6 2 2 2 3 4 4 4 3 3 6 28 53 225 76 49 20 7 0 0 16 33 23 33 26 13 5 0 0 0 0 0 0 0 0 0 0 0
0 3 3 5 3 7 2 2 2 1 3 3 3 3 4 2 32 68 467 325 290 157 76 30 3 1 1 5 0 1 4 0 0 0 0 0 0 0 0 0 0 0 0
0 3 2 4 4 3 2 1 1 2 2 2 2 2 4 6 21 86 443 450 332 237 119 33 0 2 0 0 25 38 16 1 3 0 0 0 0 0 0 0 0 0 0
0 0 0 3 0 0 2 1 2 1 2 1 1 3 3 3 5 122 255 275 211 111 26 8 0 0 0 0 7 15 5 7 3 4 0 0 0 0 0 0 0 0 0
1 0 0 2 0 0 1 1 1 1 1 1 2 1 1 3 2 13 5 39 82 84 58 29 0 0 0 0 0 0 0 1 1 0 0 0 0 0 0 0 0 0 0
1 0 0 0 0 0 1 0 1 0 0 1 1 1 0 2 4 3 8 10 3 26 95 47 22 0 0 0 0 0 0 0 0 1 1 0 0 0 1 2 3 2 0
1 0 0 0 0 1 3 6 7 0 0 0 0 0 1 0 1 2 2 1 4 4 1 0 0 0 0 0 0 0 1 2 6 0 0 0 0 0 0 0 0 1 3
0 0 0 0 0 0 2 6 9 0 0 0 0 0 0 1 1 0 1 1 1 2 2 5 1 1 0 4 1 0 0 0 12 0 0 0 0 0 0 0 0 0 0
0 1 0 0 0 0 2 4 9 0 0 0 0 0 0 0 0 0 1 0 0 2 1 2 6 6 6 5 6 4 3 1 0 0 0 2 0 0 0 0 0 0 0
0 0 0 0 0 0 2 7 3 0 0 0 0 0 0 0 1 0 1 2 2 1 0 1 1 2 1 1 1 3 0 1 0 0 0 0 0 0 0 0 0 1 1
0 0 3 0 0 0 1 5 3 0 0 0 0 0 0 1 0 0 0 1 0 1 1 0 0 1 1 1 0 1 3 2 1 0 0 0 0 0 0 0 0 1 2
CIN
-0 -0 -96 -5 -16 -26 -33 -28 -40 -37 -66 -105 -156 -222 -244 -269 -235 -249 -222 -179 -127 -75 -12 -1 -1 -3 -0 -1 -23 -6 -0 -0 -2 -5 -0 -0 -6 -3 -7 -7 -3 -1 -2
-0 -0 -0 -0 -27 -1 -3 -12 -34 -61 -68 -72 -99 -182 -246 -251 -273 -269 -228 -205 -167 -119 -63 -1 -2 -2 -0 -0 -9 -12 -0 -0 -0 -0 -0 -0 -7 -4 -7 -3 -1 -0 -2
-0 -0 -0 -0 -0 -0 -15 -0 -3 -22 -44 -74 -80 -120 -198 -232 -259 -296 -269 -226 -168 -147 -140 -19 -5 -6 -3 -2 -1 -5 -0 -0 -0 -0 -0 -0 -4 -4 -4 -1 -0 -0 -2
-0 -0 -0 -0 -0 -0 -0 -77 -0 -1 -12 -35 -66 -96 -127 -208 -233 -226 -244 -261 -239 -168 -168 -100 -19 -3 -5 -5 -2 -11 -0 -0 -0 -0 -0 -0 -4 -1 -1 -1 -1 -0 -2
-0 -0 -0 -0 -0 -0 -0 -0 -0 -2 -1 -15 -49 -72 -109 -124 -193 -203 -192 -190 -234 -211 -171 -211 -49 -19 -12 -7 -2 -7 -14 -0 -0 -0 -1 -0 -3 -1 -0 -0 -1 -1 -1
-0 -0 -0 -0 -0 -0 -0 -0 -0 -0 -12 -2 -1 -25 -88 -136 -139 -192 -218 -195 -192 -200 -197 -157 -129 -26 -21 -14 -7 -1 -12 -9 -0 -0 -0 -0 -0 -0 -1 -0 -0 -0 -0
-0 -0 -0 -0 -0 -0 -0 -0 -0 -0 -0 -0 -1 -14 -35 -137 -109 -136 -198 -204 -210 -194 -205 -182 -151 -88 -44 -32 -29 -4 -0 -4 -5 -0 -0 -0 -2 -0 -2 -1 -1 -1 -1
-0 -0 -0 -0 -0 -0 -0 -0 -0 -0 -0 -0 -20 -9 -6 -18 -72 -88 -182 -186 -211 -208 -188 -200 -170 -132 -75 -68 -42 -32 -4 -0 -1 -0 -1 -1 -3 -0 -0 -1 -1 -1 -1
-0 -0 -0 -0 -0 -0 -0 -0 -0 -0 -0 -0 -0 -1 -30 -3 -19 -145 -107 -154 -156 -175 -204 -193 -199 -184 -135 -116 -93 -86 -51 -27 -0 -0 -1 -3 -11 -6 -0 -0 -1 -0 -0
-0 -0 -0 -0 -0 -0 -0 -0 -0 -0 -0 -0 -0 -0 -37 -0 -2 -21 -114 -130 -125 -118 -163 -192 -178 -174 -141 -120 -0 -70 -137 -103 -45 -3 -8 -0 -0 -0 -0 -0 -0 -0 -1
-0 -0 -0 -0 -0 -0 -0 -0 -0 -0 -0 -0 -0 -0 -0 -0 -0 -0 -32 -19 -61 -70 -92 -108 -143 -84 -35 -95 -100 -0 -0 -0 -124 -22 -3 -5 -0 -0 -0 -0 -0 -0 -1
-0 -0 -0 -0 -0 -0 -0 -0 -0 -0 -0 -0 -0 -0 -0 -0 -1 -1 -11 -3 -8 -40 -56 -33 -22 -24 -54 -33 -42 -0 -0 -0 -152 -88 -9 -2 -0 -0 -0 -0 -0 -0 -0
-0 -0 -0 -0 -0 -0 -0 -0 -0 -0 -0 -0 -0 -0 -0 -2 -0 -2 -0 -36 -9 -17 -30 -6 -0 -10 -3 -19 -69 -0 -0 -0 -0 -0 -58 -6 -1 -0 -0 -0 -0 -0 -0
-0 -0 -0 -0 -0 -0 -0 -0 -0 -0 -0 -0 -0 -0 -0 -0 -0 -1 -15 -24 -35 -0 -0 -0 -5 -28 -9 -91 -70 -0 -0 -0 -0 -0 -0 -0 -12 -0 -0 -0 -0 -0 -0
-0 -0 -0 -0 -0 -1 -0 -0 -0 -0 -0 -0 -0 -0 -0 -1 -0 -1 -10 -63 -110 -51 -0 -0 -49 -54 -81 -69 -76 -82 -94 -0 -0 -0 -0 -0 -0 -24 -23 -0 -0 -0 -0
-0 -0 -0 -0 -0 -0 -0 -0 -0 -0 -0 -0 -0 -0 -0 -0 -5 -1 -13 -65 -93 -69 -70 -0 -6 -62 -67 -60 -59 -51 -102 -104 -0 -0 -0 -0 -0 -0 -0 -0 -0 -0 -0
-0 -0 -0 -0 -0 -0 -0 -0 -0 -0 -0 -0 -0 -0 -0 -0 -0 -2 -0 -16 -44 -40 -42 -136 -136 -113 -25 -102 -5 -58 -72 -0 -0 -0 -0 -0 -0 -0 -0 -0 -0 -0 -0
-0 -0 -0 -0 -0 -0 -0 -0 -0 -0 -0 -0 -0 -0 -0 -0 -0 -0 -0 -9 -55 -71 -53 -98 -24 -188 -0 -0 -68 -48 -46 -1 -27 -0 -0 -0 -0 -0 -0 -0 -0 -0 -0
-0 -0 -0 -0 -0 -0 -0 -0 -0 -0 -0 -0 -0 -0 -0 -0 -0 -15 -9 -10 -50 -66 -90 -63 -0 -0 -0 -0 -72 -89 -97 -66 -0 -35 -0 -0 -0 -0 -0 -0 -0 -0 -0
-0 -0 -0 -0 -0 -0 -0 -0 -0 -0 -0 -0 -0 -0 -0 -0 -0 -0 -0 -11 -43 -50 -64 -52 -5 -15 -0 -0 -0 -13 -17 -33 -31 -0 -0 -0 -0 -0 -0 -0 -0 -0 -0
-0 -0 -0 -0 -0 -0 -0 -1 -0 -0 -0 -0 -0 -0 -0 -0 -0 -0 -0 -0 -0 -6 -18 -31 -32 -7 -0 -0 -0 -0 -0 -0 -7 -40 -27 -0 -0 -0 -0 -0 -0 -0 -0
-0 -0 -0 -0 -0 -0 -0 -0 -0 -0 -0 -0 -0 -0 -0 -0 -0 -0 -0 -0 -0 -0 -0 -0 -0 -0 -0 -0 -0 -0 -18 -38 -21 -0 -0 -0 -0 -0 -0 -0 -0 -0 -0
-0 -0 -0 -0 -0 -0 -1 -0 -0 -0 -0 -0 -0 -0 -0 -0 -0 -0 -0 -0 -0 -0 -0 -0 -0 -0 -0 -0 -0 -0 -0 -0 -27 -7 -0 -0 -0 -0 -0 -0 -0 -0 -0
-0 -0 -0 -0 -0 -0 -0 -1 -0 -0 -0 -0 -0 -0 -0 -0 -0 -0 -0 -0 -0 -0 -0 -0 -0 -0 -0 -0 -0 -0 -0 -0 -0 -0 -0 -18 -0 -0 -0 -0 -0 -0 -0
-0 -0 -0 -0 -0 -0 -0 -0 -1 -0 -0 -0 -0 -0 -0 -0 -0 -0 -0 -0 -0 -0 -0 -0 -0 -0 -0 -0 -0 -0 -0 -0 -0 -0 -0 -0 -0 -0 -0 -0 -0 -0 -0
-0 -0 -1 -0 -0 -0 -0 -1 -1 -0 -0 -0 -0 -0 -0 -0 -0 -0 -0 -0 -0 -0 -0 -0 -0 -0 -0 -0 -0 -0 -0 -0 -0 -0 -0 -0 -0 -0 -0 -0 -0 -0 -0
Wind_Speed
33 34 34 30 28 25 23 23 23 20 19 18 16 13 12 11 10 10 7 3 4 6 5 5 6 6 6 7 9 7 8 9 6 1 2 3 5 6 5 5 4 5 5
35 35 35 35 33 29 27 25 24 21 20 22 21 19 16 16 14 12 11 8 5 7 7 5 6 5 6 8 10 10 7 11 7 1 2 2 5 5 6 6 7 6 5
35 36 37 37 37 37 36 29 28 26 24 24 24 25 23 20 19 16 14 13 10 9 10 8 5 7 6 8 10 11 11 11 13 7 5 5 7 5 5 6 7 6 5
37 37 37 37 38 39 38 38 32 30 30 29 26 27 28 27 23 20 18 17 15 11 11 13 12 9 8 7 10 13 12 11 13 12 8 8 8 5 5 5 6 5 6
39 39 38 39 40 39 39 39 40 36 34 32 30 30 30 31 28 26 23 20 18 15 12 13 17 13 11 9 10 11 14 13 11 12 10 10 10 9 8 6 6 7 6
42 41 40 41 40 40 40 41 43 43 42 36 35 34 30 34 31 28 27 25 22 19 17 15 13 15 15 11 10 11 13 12 12 10 9 8 9 9 7 9 8 8 8
43 41 42 42 41 41 42 43 44 45 45 42 36 38 36 35 35 32 31 30 27 24 22 20 19 15 14 16 13 12 14 14 13 13 11 10 8 8 9 10 11 10 9
44 43 43 43 42 44 43 43 45 47 47 48 44 39 46 44 43 39 31 30 31 30 27 25 24 22 18 16 15 16 17 16 14 13 14 12 11 10 10 11 11 12 11
45 45 45 45 45 44 46 46 45 47 51 51 49 44 39 39 41 37 36 36 34 32 33 30 29 28 26 27 22 17 19 18 16 16 14 15 15 13 12 12 12 13 13
47 45 46 46 47 47 47 48 47 48 49 55 53 49 50 49 43 41 41 41 38 37 35 33 32 32 32 31 30 24 20 22 21 18 17 16 16 16 15 14 13 14 14
46 48 49 49 49 48 49 50 51 52 50 53 55 57 53 54 53 55 48 42 36 39 36 35 34 33 32 38 35 29 24 23 24 22 20 20 19 18 17 16 15 16 16
48 49 50 51 51 51 51 52 51 53 53 55 56 56 58 56 55 55 57 46 43 36 32 35 38 37 36 40 39 27 29 26 26 26 23 22 22 21 20 19 18 17 17
50 52 52 53 52 52 52 51 52 51 53 56 58 59 59 59 55 52 49 49 38 35 34 36 32 30 33 30 37 35 30 31 28 28 27 24 25 25 23 22 21 20 19
49 50 51 50 50 49 48 48 49 51 52 54 59 60 61 60 57 53 48 32 36 37 30 31 32 34 35 33 38 36 33 32 31 29 29 28 27 26 26 24 22 22 21
45 48 49 49 47 46 44 46 48 50 51 53 55 59 61 60 59 53 48 42 36 38 34 28 25 28 29 19 22 30 37 32 32 32 31 30 30 29 28 26 25 24 24
44 47 49 47 47 44 44 45 46 47 49 50 51 55 57 58 57 55 48 42 37 34 35 26 23 29 24 23 19 22 28 24 40 35 31 31 31 31 30 29 27 26 26
43 44 47 46 46 43 43 44 46 47 47 48 49 51 54 56 55 53 46 41 37 34 36 30 26 20 18 22 24 21 25 29 32 30 30 32 31 31 31 31 29 28 27
42 42 45 45 45 43 43 43 46 46 44 44 46 46 47 48 53 49 44 43 38 36 37 35 23 20 22 18 22 20 19 24 28 25 29 29 29 30 30 31 31 30 29
39 40 43 44 45 45 43 44 45 45 42 41 41 41 39 40 39 45 40 41 38 35 34 32 30 28 27 22 22 24 23 24 26 25 22 28 29 30 30 30 31 31 31
38 37 41 42 43 44 41 45 45 43 40 39 38 38 32 32 32 33 31 33 33 31 29 30 32 31 28 26 24 26 26 27 31 27 28 32 32 36 33 30 29 31 31
37 36 36 40 43 42 42 46 45 41 39 38 34 33 30 28 27 27 28 27 29 30 30 31 31 28 25 26 25 26 27 26 31 29 31 34 34 35 35 36 34 32 31
40 38 35 38 43 40 44 45 45 40 38 36 35 34 30 28 27 28 27 22 21 25 30 30 28 30 28 26 25 27 28 27 32 28 29 36 31 33 33 34 35 37 31
41 39 37 37 43 40 44 43 44 40 37 35 34 31 28 26 26 27 24 18 21 24 27 32 30 26 25 22 23 25 26 26 29 25 22 32 28 28 31 34 35 36 36
40 39 39 38 39 38 39 41 44 39 35 34 33 29 27 27 25 25 21 22 24 24 24 26 22 21 23 24 24 25 27 29 31 30 23 29 25 26 28 30 31 32 35
41 40 39 41 41 40 43 38 39 40 35 33 30 28 28 24 26 24 19 22 22 20 25 27 21 25 25 26 26 26 30 30 32 30 26 30 29 30 30 33 31 31 36
40 40 37 41 41 40 42 43 41 36 35 34 31 30 28 26 25 23 23 22 23 28 27 27 25 26 24 24 24 25 29 33 31 32 28 28 29 28 33 29 29 27 31
Wind_Direction
318 316 308 306 304 301 298 296 296 296 292 292 293 291 291 291 295 301 304 281 197 176 158 136 136 128 121 129 136 134 134 130 120 351 9 35 107 114 112 113 121 123 124
319 316 313 311 303 301 296 292 289 288 285 287 287 286 284 286 285 283 287 284 239 205 192 175 164 148 143 147 148 145 147 147 141 116 99 90 126 128 128 126 131 136 140
323 318 315 310 307 305 296 293 288 286 284 282 280 282 283 281 281 276 277 278 276 225 210 204 192 178 168 161 160 159 157 156 154 149 139 134 141 145 146 146 145 152 156
325 320 315 313 308 303 302 296 289 286 282 280 278 278 279 279 276 272 273 273 274 269 223 208 200 195 187 179 170 169 168 165 163 159 153 149 152 162 170 172 167 179 172
327 322 317 312 309 306 300 297 293 289 284 281 277 277 276 276 274 272 266 266 267 265 256 225 207 205 202 197 187 178 176 177 174 169 162 158 157 159 167 180 184 183 195
326 321 318 314 310 305 301 298 293 290 291 281 281 277 271 271 270 267 265 265 263 259 258 255 241 214 209 210 207 196 186 185 189 191 186 182 172 169 179 180 186 189 194
328 324 319 313 311 307 301 298 295 291 288 288 279 277 273 268 267 263 264 266 261 257 258 259 259 249 233 214 214 212 201 194 194 193 198 199 199 190 185 189 188 191 200
327 326 321 317 311 305 303 299 295 291 287 283 285 277 276 273 267 265 259 258 260 260 257 255 256 255 250 246 224 213 206 205 204 200 196 200 202 210 200 196 200 200 207
326 323 320 316 313 308 301 299 296 291 287 283 280 279 282 276 270 267 263 260 258 257 257 256 255 257 257 261 256 233 214 211 213 210 208 201 200 206 208 203 210 211 213
324 323 320 316 312 308 302 297 293 291 288 282 281 277 278 274 277 278 271 264 261 259 257 256 256 256 258 259 259 253 229 216 213 215 215 213 206 207 208 208 205 213 218
324 322 318 315 311 307 303 298 293 289 286 283 281 277 278 274 272 272 272 272 263 260 262 261 256 257 255 259 258 255 243 226 218 218 217 215 213 210 209 218 219 213 217
326 325 321 316 312 307 303 298 295 290 285 283 280 277 274 273 272 271 269 274 257 262 265 271 259 255 260 256 256 244 248 239 226 219 223 217 216 211 211 213 215 217 220
326 324 323 319 315 311 305 299 295 293 289 282 278 276 274 272 272 272 270 264 266 268 275 272 267 263 263 254 254 252 246 245 235 225 221 222 215 213 213 214 214 214 216
329 328 327 324 320 316 311 306 301 296 291 286 279 275 272 271 267 265 260 263 277 275 277 275 268 269 262 264 258 250 253 245 235 234 224 226 223 219 217 215 217 214 214
335 334 330 327 325 321 318 313 306 300 294 289 284 277 271 269 265 262 261 264 272 273 271 275 267 269 268 264 268 250 252 255 247 245 235 232 226 223 220 219 219 217 215
337 336 333 329 327 325 323 319 312 306 300 292 289 280 273 268 263 260 257 259 262 269 271 269 265 267 267 269 272 262 253 247 254 253 240 237 233 229 225 220 219 220 220
340 340 335 333 331 329 326 322 317 309 302 297 293 286 277 268 262 257 254 254 256 257 262 272 269 261 263 265 269 265 261 259 259 252 247 245 238 233 229 223 222 223 222
344 344 337 336 331 333 328 325 323 316 307 301 297 294 282 276 261 254 251 250 252 254 259 261 263 267 270 265 267 263 260 264 262 263 252 242 239 235 233 228 226 225 225
348 350 342 336 333 330 332 325 326 322 310 306 303 298 291 281 270 254 251 250 251 253 254 258 263 268 271 274 266 267 266 263 263 264 256 251 248 244 243 240 234 227 225
350 353 347 338 334 336 340 329 325 322 314 309 309 305 297 285 278 264 255 251 249 249 252 257 263 266 270 271 268 262 263 264 263 265 263 257 257 255 250 249 243 235 232
352 355 355 345 337 339 340 333 328 322 320 313 301 300 293 291 282 275 262 259 256 252 254 259 261 264 262 269 262 263 262 264 263 266 264 260 259 258 257 256 256 250 239
348 352 357 352 343 345 338 330 332 327 318 311 302 303 300 298 288 280 273 267 269 258 260 258 260 257 262 266 263 261 262 265 265 269 264 263 260 258 259 260 255 256 250
349 350 353 355 338 350 334 330 331 333 324 319 319 302 297 289 295 287 280 278 273 268 265 262 254 258 261 269 269 267 266 268 267 272 270 267 265 264 262 263 261 259 257
350 352 349 352 352 354 321 326 334 341 323 316 320 304 299 297 297 292 290 275 273 271 268 260 260 265 268 272 273 271 269 271 269 268 274 271 270 267 270 267 268 265 261
345 349 350 347 348 349 343 322 326 344 325 319 311 309 316 304 303 304 295 277 266 272 272 269 273 273 273 272 273 273 267 269 266 268 270 273 272 272 273 271 275 274 265
344 345 349 347 342 345 340 340 332 324 326 323 320 319 316 315 313 306 288 280 281 268 270 276 278 272 274 277 277 273 269 267 268 271 274 271 272 274 271 278 281 280 273